Location: Bieg
(49.3499°N, 10.3835°E)
Time: 22:55:59
(UTC+00:00)

SL-27 R/B - Pass Details

Date: 23 May 2024
Orbit: 326 x 350 km, 74.7° (Epoch: 25 June)

Event Time Altitude Azimuth Distance (km) Brightness Sun altitude
Exits shadow 02:44:51 - 240° (WSW) 1,409 4.3 -6.0°
Reaches altitude 10° 02:45:16 10° 244° (WSW) 1,256 4.0 -5.9°
Maximum altitude 02:47:31 23° 300° (WNW) 773 3.4 -5.7°
Drops below altitude 10° 02:49:47 10° 356° (N) 1,262 5.2 -5.4°
Sets 02:51:59 0° 12° (NNE) 2,103 6.8 -5.1°
